Location: Heppenheim
(49.6410°N, 8.6370°E)
Time: 21:29:48
(UTC+02:00)

ISS - Visible Passes

Search period start: 20 May 2018 00:00
Search period end: 30 May 2018 00:00
Orbit: 402 x 407 km, 51.6° (Epoch: 21 May)

Date Brightness Start Highest point End Pass type
(mag) Time Alt. Az. Time Alt. Az. Time Alt. Az.
20 May -1.6 00:06:23 16° E 00:06:23 16° E 00:07:11 10° ENE visible
20 May -3.4 01:38:56 27° W 01:40:29 61° N 01:43:44 10° ENE visible
20 May -3.7 03:13:53 10° WNW 03:17:10 75° NNE 03:20:26 10° E visible
20 May -3.1 04:50:31 10° W 04:53:30 33° SSW 04:56:28 10° SSE visible
20 May -3.3 23:08:53 10° SW 23:11:54 35° SSE 23:14:56 10° E visible
21 May -3.7 00:45:01 10° W 00:48:16 72° NNW 00:51:33 10° ENE visible
21 May -3.4 02:21:42 10° WNW 02:24:58 63° N 02:28:12 10° E visible
21 May -3.7 03:58:14 10° WNW 04:01:26 50° SSW 04:04:37 10° SE visible
21 May -2.7 22:17:14 10° SSW 22:19:53 23° SE 22:22:32 10° E visible
21 May -4.0 23:52:48 10° WSW 23:56:04 89° S 23:59:21 10° ENE visible
22 May -3.3 01:29:28 10° W 01:32:42 58° N 01:35:57 10° E visible
22 May -4.0 03:06:02 10° WNW 03:09:18 75° SSW 03:12:33 10° ESE visible
22 May -2.3 04:43:06 10° W 04:45:23 18° SW 04:47:40 10° S visible
22 May -3.9 23:00:40 10° WSW 23:03:54 63° SSE 23:07:09 10° ENE visible
23 May -3.3 00:37:12 10° W 00:40:27 59° N 00:43:41 10° ENE visible
23 May -3.8 02:13:50 10° WNW 02:17:07 81° NNE 02:20:23 10° ESE visible
23 May -3.0 03:50:32 10° W 03:53:23 28° SW 03:56:13 10° SSE visible
23 May -3.4 22:08:39 10° SW 22:11:46 42° SSE 22:14:53 10° ENE visible
23 May -3.5 23:44:55 10° W 23:48:11 67° N 23:51:28 10° ENE visible
24 May -3.5 01:21:36 10° WNW 01:24:52 66° N 01:27:54 12° E visible
24 May -2.9 02:58:10 10° WNW 03:00:17 32° WSW 03:00:17 32° WSW visible
24 May -3.8 22:52:39 10° WSW 22:55:56 83° NNW 22:59:13 10° ENE visible
25 May -3.3 00:29:21 10° WNW 00:32:36 59° N 00:35:40 11° E visible
25 May -3.2 02:05:54 10° WNW 02:08:16 42° W 02:08:16 42° W visible
25 May -3.9 22:00:27 10° WSW 22:03:42 73° SSE 22:06:59 10° ENE visible
25 May -3.2 23:37:03 10° W 23:40:18 58° N 23:43:32 10° ENE visible
26 May -4.0 01:13:39 10° WNW 01:16:56 89° NNE 01:17:10 76° ESE visible
26 May -3.4 22:44:44 10° W 22:48:00 63° N 22:51:15 10° ENE visible
27 May -3.6 00:21:24 10° WNW 00:24:40 71° NNE 00:26:19 26° E visible
27 May -1.7 01:57:59 10° W 01:58:55 17° W 01:58:55 17° W visible
27 May -3.3 23:29:07 10° WNW 23:32:22 61° N 23:35:33 10° E visible
28 May -3.2 01:05:39 10° WNW 01:08:10 44° WSW 01:08:10 44° WSW visible
28 May -3.2 22:36:47 10° W 22:40:02 58° N 22:43:16 10° E visible
29 May -4.0 00:13:21 10° WNW 00:16:39 82° SSW 00:17:29 47° ESE visible
29 May -3.7 23:21:04 10° WNW 23:24:21 76° NNE 23:26:49 16° E visible
